Location: Br�znic
(45.9167°N, 22.6500°E)
Time: 19:23:08
(UTC+00:00)

Cosmos 1943 Rocket - Pass Details

Date: 03 March 2021
Orbit: 811 x 844 km, 71.0° (Epoch: 13 April)

Event Time Altitude Azimuth Distance (km) Brightness Sun altitude
Rises 19:01:16 0° 341° (NNW) 3,415 5.9 -28.6°
Reaches altitude 10° 19:04:39 10° 1° (N) 2,475 4.8 -29.1°
Enters shadow 19:06:45 16° 22° (NNE) 2,098 4.2 -29.4°
